Location: Jacksonville
(30.3320°N, 81.6560°W)
Time: 09:23:11
(UTC-05:00)

N. Korean satellite - Visible Passes

Search period start: 27 November 2020 00:00
Search period end: 07 December 2020 00:00
Orbit: 452 x 504 km, 97.2° (Epoch: 26 November)

Date Brightness Start Highest point End Pass type
(mag) Time Alt. Az. Time Alt. Az. Time Alt. Az.
27 Nov 7.0 05:41:14 10° NNE 05:44:49 63° E 05:48:26 10° S visible
28 Nov 8.9 05:15:28 10° NE 05:18:31 25° E 05:21:35 10° SSE visible
29 Nov 10.1 04:51:03 10° ENE 04:52:08 11° E 04:53:12 10° ESE visible
29 Nov 7.4 06:22:15 10° NNW 06:25:27 30° WNW 06:28:40 10° SW visible
30 Nov 6.5 05:55:38 10° N 05:59:15 76° WNW 06:02:54 10° SSW visible
30 Nov 9.6 17:59:10 10° SW 18:01:42 20° W 18:04:16 10° NW visible
01 Dec 7.9 05:29:30 10° NNE 05:32:57 41° E 05:36:26 10° S visible
02 Dec 9.5 05:04:03 10° NE 05:06:35 18° E 05:09:07 10° SE visible
02 Dec 8.0 06:37:06 10° NNW 06:39:45 19° WNW 06:42:26 10° WSW visible
03 Dec 6.9 06:10:05 10° N 06:13:34 44° WNW 06:17:05 10° SSW visible
03 Dec 10.0 18:14:38 10° WSW 18:16:06 12° W 18:17:34 10° WNW visible
04 Dec 6.9 05:43:39 10° NNE 05:47:19 71° ESE 05:50:58 10° S visible
05 Dec 8.7 05:17:45 10° NE 05:20:57 28° E 05:24:09 10° SSE visible
06 Dec 10.0 04:52:55 10° ENE 04:54:30 12° E 04:56:04 10° ESE visible
06 Dec 7.5 06:24:38 10° NNW 06:27:48 28° WNW 06:30:58 10° SW visible
